Weather in Kolwezi

Democratic Republic of the Congo     10°43′15″S   25°25′16″E
temp.,
°C
wind,
m/s
gust,
m/s
humid.,
%
clouds,
%
prec.,
mm/h
press.,
hPa
HPBL,
m
26 june, sun
sun2601:00+12se376196 0.0 1019163
04:00+10se31069100 0.0 1020223
07:00+13ese5135981 0.0 1022560
10:00+20e67388 0.0 10201167
13:00+24e33300 0.0 10162063
16:00+23e34321 0.0 10161825
19:00+16ese24525 0.0 1019101
22:00+14se36560 0.0 1020155
27 june, mon
mon2701:00+13se312560 0.0 1020353
04:00+12se514630 0.0 1021600
07:00+14ese614615 0.0 1022718
10:00+21ese68372 0.0 10211319
13:00+24ese45280 0.0 10172095
16:00+23ese45303 0.0 10162151
19:00+16ese311480 0.0 1020320
22:00+14se310563 0.0 1021284
28 june, tue
tue2801:00+12se514670 0.0 1022713
04:00+10ese514740 0.0 1022596
07:00+12ese615660 0.0 1023720
10:00+19ese78431 0.0 10211275
13:00+23ese45315 0.0 10171850
16:00+22ese44333 0.0 10162030
19:00+15ese311564 0.0 1020326
22:00+13se512655 0.0 1021516
29 june, wed
wed2901:00+10se513795 0.0 1021537
04:00+10ese4138136 0.0 1022506
07:00+12ese5136984 0.0 1022571
10:00+20e564149 0.0 10201154
13:00+24e323194 0.0 10152180
16:00+23ene223212 0.0 10141860
19:00+17e234987 0.0 101741
22:00+14ese24605 0.0 101889
30 june, thu
thu3001:00+12se24695 0.0 101878
04:00+11se397813 0.0 1019232
07:00+13se41269100 0.0 1021438
10:00+22e454276 0.0 10181064
13:00+25ene3331100 0.0 10142709
16:00+22ene454073 0.0 1014645
19:00+16e266537 0.0 1018159
22:00+14ese23735 0.0 101859